Location: ?????
(42.2640°N, 43.4211°E)
Time: 15:25:55
(UTC+00:00)

Cosmos 1125 Rocket - Pass Details

Date: 07 August 2020
Orbit: 757 x 781 km, 74.0° (Epoch: 20 September)

Event Time Altitude Azimuth Distance (km) Brightness Sun altitude
Exits shadow 00:58:16 - 184° (S) 3,041 6.2 -11.7°
Reaches altitude 10° 01:00:14 10° 180° (S) 2,286 5.6 -11.4°
Maximum altitude 01:05:16 53° 105° (ESE) 931 4.2 -10.6°
Drops below altitude 10° 01:10:22 10° 29° (NNE) 2,316 7.1 -9.8°
Sets 01:12:48 0° 25° (NNE) 3,251 7.8 -9.4°
